National Oceanic Atmosphere Administration National Weather Service Headquarters National Weather Service Headquarters
NOAA logo WFO Anchorage Scalable transition graphic NWS logo
Transition from title bar to navgation bar   Aviation Weather 14 AKST 
blankspace Home   |   Mobile   |   Social Media   |   Mesonet   |   Surface Map   |   Radar   |   Submit Storm Reports   |   News =23 GMT 

LocalForecast by City, St or Zip Code

spacer

Forecasts/Products
  Public
  Forecast Discussion
    - With Glossary
  Aviation
  Marine
  Hydrology(RFC)
  Rivers & Lakes AHPS
  Ice Desk
  TV Weather
  Fire Weather
  Avalanche
  Travel 511
  Graphical
  xml logo RSS Feeds
  Marine FTPMail

spacer

Data
  Mesonet
  Model Graphics
  Local Model
  Observations
  Marine Obs
  Satellite/Radar
  Vent Factor
  Soaring Index
  Weather Links

spacer

Climate
  PAFC Climate
  Interactive Climate
  PAFC Records
  Local
  National
  More

spacer

Outreach
  About Us
  Community Outreach
  Kids' Page
  Tour/Speaker Request
  Weather Classroom
  Social Media

spacer

Reports
  COOP Observers
  Local Storm Reports
  Spotter Page
  Submit a Storm Report

spacer

Miscellaneous
  Archived Alaska Weather Stories
  Student Career Opportunities
  Research Papers

spacer

Print Friendly/
Low Bandwidth

  Public Forecasts
  Marine Forecasts

spacer

Contact Us
  mailto pafcweb

spacer

Facebook Follow the National Weather Service in Alaska on Twitter
USA.gov is the U.S. government's official web portal to all federal, state and local government web resources and services.


 ICAO ID:   AAWU Graphics

Internet access to TAFs and METAR observations is for planning purposes only. We can not guarantee the timeliness of internet products. Before flying please get a formal pilot briefing (1-800-992-7433) and ALWAYS file a Flight Plan!Pilot briefings are provided to licensed aircraft pilots, ONLY! Others may not use the above number to obtain weather information.

Check out the Key to TAFs and METARs for help with decoding the information.

A 12 hour summary of TAFs can be found here.

PAKN TAF
PAKN 191720Z 1918/2018  36010KT P6SM BKN120
     FM192200 04013KT P6SM SCT060 BKN100
     FM200300 05016G24KT P6SM SCT060 BKN100
     FM201000 04014KT P6SM BKN120=


METAR PAKN 192254Z 36008KT 10SM FEW060 SCT130 02/M02 A2891 RMK AO2
     SLP790 T00221022=
METAR PAKN 192254Z 36008KT 10SM FEW060 SCT130 02/M02 A2891=
METAR PAKN 192154Z 34012KT 10SM SCT130 00/M03 A2892 RMK AO2 SLP793
     T00001033=
METAR PAKN 192154Z 34012KT 10SM SCT130 00/M03 A2892=
METAR PAKN 192054Z 02014KT 10SM FEW065 BKN130 01/M03 A2894 RMK AO2
 SLP800 T00061033 58005=
METAR PAKN 192054Z 02014KT 10SM FEW065 BKN130 01/M03 A2894=
METAR PAKN 191954Z 02006KT 10SM FEW060 SCT120 01/M04 A2895 RMK AO2
 SLP804 T00061044=
METAR PAKN 191954Z 02006KT 10SM FEW060 SCT120 01/M04 A2895=


National Weather Service
Anchorage Forecast Office
6930 Sand Lake Road
Anchorage, Ak 99502
(907) 266-5105 M-F/7-5pm
About Us
Career Opportunities
Glossary
Disclaimer
Privacy Policy
Credits
Alaska Weather Information Line:
1-800-472-0391